Time,TemperatureF,DewpointF,PressureIn,WindDirection,WindDirectionDegrees,WindSpeedMPH,WindSpeedGustMPH,Humidity,HourlyPrecipIn,Conditions,Clouds,dailyrainin,SoftwareType,DateUTC
2013-12-01 00:53:00,71.0,-99.9,30.11,NE,40,13.0,16.0,-999,-99.99,,,-99.99,,2013-12-01 05:53:00,
2013-12-01 01:52:00,70.0,-99.9,30.10,NNE,30,15.0,17.0,-999,-99.99,,,-99.99,,2013-12-01 06:52:00,
2013-12-01 02:52:00,70.0,-99.9,30.08,NE,40,15.0,17.0,-999,-99.99,,,-99.99,,2013-12-01 07:52:00,
2013-12-01 03:52:00,69.0,-99.9,30.06,NE,50,14.0,15.0,-999,-99.99,,,-99.99,,2013-12-01 08:52:00,
2013-12-01 03:54:00,68.0,-99.9,30.05,NE,40,13.0,14.0,-999,-99.99,,,-99.99,,2013-12-01 08:54:00,
2013-12-01 05:53:00,68.0,-99.9,30.05,NE,40,11.0,14.0,-999,-99.99,,,-99.99,,2013-12-01 10:53:00,
2013-12-01 06:52:00,67.0,-99.9,30.06,NE,40,11.0,14.0,-999,-99.99,,,-99.99,,2013-12-01 11:52:00,
2013-12-01 07:52:00,67.0,-99.9,30.07,NE,40,13.0,15.0,-999,-99.99,,,-99.99,,2013-12-01 12:52:00,
2013-12-01 08:52:00,67.0,-99.9,30.09,NNE,30,14.0,17.0,-999,-99.99,,,-99.99,,2013-12-01 13:52:00,
2013-12-01 11:52:00,75.0,-99.9,30.10,NE,40,5.0,6.0,-999,-99.99,,,-99.99,,2013-12-01 16:52:00,
2013-12-01 12:52:00,73.0,-99.9,30.08,NW,320,6.0,8.0,-999,-99.99,,,-99.99,,2013-12-01 17:52:00,
2013-12-01 13:52:00,71.0,-99.9,30.06,NNW,330,14.0,16.0,-999,-99.99,,,-99.99,,2013-12-01 18:52:00,
2013-12-01 15:52:00,72.0,-99.9,30.00,NNW,340,13.0,15.0,-999,-99.99,,,-99.99,,2013-12-01 20:52:00,
2013-12-01 16:53:00,72.0,-99.9,29.99,North,350,10.0,13.0,-999,-99.99,,,-99.99,,2013-12-01 21:53:00,
2013-12-01 17:53:00,73.0,-99.9,30.00,NNW,340,14.0,16.0,-999,-99.99,,,-99.99,,2013-12-01 22:53:00,
2013-12-01 18:52:00,72.0,-99.9,30.01,North,350,13.0,15.0,-999,-99.99,,,-99.99,,2013-12-01 23:52:00,
2013-12-01 19:52:00,72.0,-99.9,30.01,North,10,8.0,10.0,-999,-99.99,,,-99.99,,2013-12-02 00:52:00,
2013-12-01 20:52:00,72.0,-99.9,30.01,North,360,10.0,13.0,-999,-99.99,,,-99.99,,2013-12-02 01:52:00,
2013-12-01 21:52:00,72.0,-99.9,30.02,NNE,30,8.0,10.0,-999,-99.99,,,-99.99,,2013-12-02 02:52:00,
2013-12-01 21:54:00,71.0,-99.9,30.01,ENE,60,3.0,5.0,-999,-99.99,,,-99.99,,2013-12-02 02:54:00,
2013-12-01 23:53:00,70.0,-99.9,30.00,NE,50,11.0,15.0,-999,-99.99,,,-99.99,,2013-12-02 04:53:00,